OCNSID Weather Reports


Display with metric or nautical units.
time (UTC)temp
F
wind
direction
speed
MPH
gust
MPH
rain 1hr
in
rain 24hr
in
rain mn
in
humidity
%
barometer
mb
20191213060944 50 238 1.0 8.0 0.00 0.49 0.49
20191213060444 50 191 1.0 4.0 0.00 0.49 0.49
20191213055943 50 232 1.0 9.0 0.00 0.49 0.49
20191213055443 50 183 0.0 9.0 0.00 0.49 0.49
20191213054943 50 260 1.0 9.0 0.00 0.50 0.49
20191213054443 50 238 1.0 9.0 0.00 0.50 0.49
20191213053944 50 205 3.0 8.0 0.00 0.50 0.49
20191213052944 50 239 2.0 8.0 0.00 0.50 0.49
20191213052443 50 215 0.0 8.0 0.00 0.50 0.49
20191213051943 50 308 2.0 8.0 0.00 0.50 0.49
20191213051443 50 211 0.0 8.0 0.00 0.50 0.49
20191213050943 50 215 1.0 6.0 0.00 0.50 0.49
20191213050444 50 229 2.0 6.0 0.00 0.50 0.49
20191213045943 50 266 1.0 5.0 0.00 0.50 0.49
20191213045443 50 232 1.0 5.0 0.00 0.50 0.49
20191213044943 50 310 0.0 3.0 0.00 0.50 0.49
20191213044444 49 259 0.0 7.0 0.00 0.50 0.49
20191213043944 49 229 0.0 7.0 0.00 0.50 0.49
20191213043444 49 268 0.0 7.0 0.00 0.50 0.49
20191213042943 49 215 0.0 8.0 0.00 0.50 0.49
20191213041944 49 264 1.0 8.0 0.01 0.50 0.49
20191213040943 49 245 2.0 8.0 0.02 0.50 0.49
20191213040443 49 204 2.0 8.0 0.02 0.50 0.49
20191213035944 49 253 2.0 9.0 0.02 0.50 0.49
20191213035443 49 303 2.0 9.0 0.02 0.50 0.49
20191213034943 49 222 2.0 9.0 0.02 0.50 0.49
20191213034443 49 261 1.0 9.0 0.02 0.50 0.49
20191213033943 49 238 1.0 9.0 0.02 0.50 0.49
20191213033443 49 1 1.0 9.0 0.02 0.50 0.49
20191213032943 49 277 2.0 15.0 0.02 0.50 0.49
20191213032443 49 247 4.0 15.0 0.02 0.50 0.49
20191213031943 49 308 3.0 15.0 0.01 0.50 0.49
20191213031444 49 249 8.0 14.0 0.01 0.50 0.48
20191213030944 49 218 3.0 14.0 0.00 0.50 0.48
20191213030443 50 260 7.0 8.0 0.00 0.50 0.48
20191213025944 51 182 1.0 8.0 0.00 0.50 0.47
20191213025444 51 235 3.0 8.0 0.00 0.50 0.47
20191213024943 51 245 5.0 8.0 0.00 0.54 0.47
20191213024444 51 229 1.0 8.0 0.00 0.54 0.47
20191213023943 51 194 1.0 8.0 0.00 0.54 0.47
20191213023443 51 226 1.0 9.0 0.00 0.54 0.47
20191213022943 51 208 1.0 9.0 0.00 0.54 0.47
20191213022443 51 263 2.0 9.0 0.00 0.54 0.47
20191213021943 51 229 1.0 10.0 0.00 0.54 0.47
20191213021443 50 256 3.0 10.0 0.00 0.54 0.47
20191213020943 50 259 3.0 10.0 0.00 0.54 0.47
20191213020443 50 264 3.0 14.0 0.00 0.54 0.47
20191213015943 50 247 1.0 14.0 0.00 0.54 0.47
20191213015443 50 208 3.0 14.0 0.00 0.54 0.47
20191213014943 50 285 4.0 11.0 0.00 0.70 0.47
20191213014443 50 240 3.0 11.0 0.00 0.70 0.47
20191213013943 51 239 2.0 10.0 0.00 0.70 0.47
20191213013443 50 273 6.0 11.0 0.00 0.70 0.47
20191213012944 51 176 2.0 11.0 0.00 0.70 0.47
20191213012443 50 320 2.0 11.0 0.00 0.70 0.47
20191213011943 51 242 4.0 13.0 0.00 0.70 0.47
20191213011443 50 268 4.0 13.0 0.00 0.70 0.47
20191213010943 50 284 4.0 13.0 0.00 0.70 0.47
20191213010443 50 242 3.0 12.0 0.00 0.70 0.47
20191213005943 50 204 3.0 12.0 0.00 0.70 0.47
20191213005443 50 259 3.0 12.0 0.00 0.70 0.47
20191213004943 50 233 3.0 12.0 0.00 0.74 0.47
20191213004443 50 271 3.0 12.0 0.00 0.74 0.47
20191213003943 51 278 3.0 12.0 0.00 0.74 0.47
20191213003443 51 256 3.0 10.0 0.00 0.74 0.47
20191213002943 51 295 3.0 10.0 0.00 0.74 0.47
20191213002443 51 278 4.0 11.0 0.00 0.74 0.47
20191213001945 50 260 4.0 11.0 0.00 0.74 0.47
20191213001443 50 285 4.0 11.0 0.00 0.74 0.47
20191213000943 50 266 4.0 11.0 0.00 0.74 0.47
20191212235943 51 247 2.0 11.0 0.00 0.74 0.47
20191212235442 51 249 4.0 8.0 0.00 0.74 0.47
20191212234943 51 260 3.0 7.0 0.00 0.81 0.47
20191212234443 51 222 3.0 7.0 0.00 0.81 0.47
20191212233442 51 226 1.0 7.0 0.00 0.81 0.47
20191212232943 51 254 2.0 8.0 0.00 0.81 0.47
20191212232443 51 238 2.0 8.0 0.00 0.81 0.47
20191212231945 51 257 1.0 8.0 0.00 0.81 0.47
20191212231443 51 256 3.0 7.0 0.00 0.81 0.47
20191212230942 51 235 2.0 7.0 0.00 0.81 0.47
20191212230442 51 275 4.0 7.0 0.00 0.81 0.47
20191212225942 51 277 3.0 7.0 0.00 0.81 0.47
20191212225442 51 280 2.0 6.0 0.00 0.81 0.47
20191212224942 50 226 2.0 6.0 0.00 0.84 0.47
20191212224442 50 243 2.0 5.0 0.00 0.84 0.47
20191212223942 50 173 2.0 7.0 0.00 0.84 0.47
20191212223442 50 236 0.0 7.0 0.00 0.84 0.47
20191212222942 50 259 1.0 7.0 0.00 0.84 0.47
20191212222442 50 268 1.0 6.0 0.00 0.84 0.47
20191212221943 50 266 3.0 6.0 0.00 0.84 0.47
20191212221442 50 236 0.0 6.0 0.00 0.84 0.47
20191212220943 50 221 2.0 8.0 0.00 0.84 0.47
20191212220443 50 247 0.0 8.0 0.00 0.84 0.47
20191212215942 50 191 3.0 8.0 0.00 0.84 0.47
20191212215443 50 12 2.0 7.0 0.00 0.84 0.47
20191212214942 50 271 0.0 7.0 0.00 0.84 0.47
20191212214443 50 247 1.0 7.0 0.00 0.84 0.47
20191212213942 51 222 3.0 7.0 0.00 0.84 0.47
20191212213442 51 253 3.0 6.0 0.00 0.84 0.47
20191212212943 51 250 2.0 7.0 0.00 0.84 0.47
20191212212442 51 201 1.0 7.0 0.00 0.84 0.47
20191212211943 50 264 0.0 7.0 0.00 0.84 0.47
20191212211443 50 280 2.0 8.0 0.00 0.84 0.47
20191212210943 50 210 1.0 8.0 0.00 0.84 0.47
20191212210442 50 233 4.0 8.0 0.00 0.84 0.47
20191212205942 50 201 2.0 6.0 0.01 0.84 0.47
20191212205443 50 240 0.0 5.0 0.01 0.84 0.47
20191212204943 50 184 1.0 5.0 0.04 0.85 0.47
20191212204442 50 190 1.0 6.0 0.04 0.85 0.47
20191212203942 50 354 0.0 6.0 0.06 0.85 0.47
20191212203442 50 226 1.0 6.0 0.06 0.85 0.47
20191212202942 50 186 2.0 5.0 0.07 0.85 0.47
20191212202442 50 165 1.0 5.0 0.07 0.85 0.47
20191212201942 50 214 0.0 6.0 0.11 0.85 0.47
20191212201442 49 207 2.0 6.0 0.11 0.85 0.47
20191212200942 49 278 1.0 6.0 0.15 0.85 0.47
20191212200442 48 238 1.0 5.0 0.15 0.85 0.47
20191212195942 48 154 0.0 5.0 0.16 0.85 0.47
20191212195442 48 162 0.0 5.0 0.16 0.85 0.47
20191212194945 48 313 0.0 7.0 0.14 0.69 0.46
20191212194442 48 299 1.0 7.0 0.14 0.69 0.45
20191212193942 48 310 0.0 7.0 0.15 0.69 0.43
20191212193442 48 68 0.0 6.0 0.15 0.69 0.42
20191212192942 48 93 1.0 6.0 0.15 0.69 0.40
20191212192442 48 189 0.0 6.0 0.15 0.69 0.40
20191212191942 48 183 3.0 5.0 0.11 0.69 0.39
20191212191442 48 142 0.0 5.0 0.11 0.69 0.38
20191212190942 48 183 0.0 5.0 0.07 0.69 0.36
20191212190442 48 0 0.0 2.0 0.07 0.69 0.32
20191212185942 48 126 0.0 2.0 0.06 0.69 0.31
20191212185441 47 148 0.0 2.0 0.06 0.69 0.31
20191212184942 47 119 1.0 2.0 0.05 0.63 0.30
20191212184442 47 64 0.0 5.0 0.05 0.63 0.30
20191212183442 47 292 0.0 5.0 0.02 0.63 0.27
20191212182942 47 14 2.0 3.0 0.02 0.63 0.26
20191212182442 47 343 0.0 3.0 0.02 0.63 0.25
20191212181942 47 14 0.0 3.0 0.11 0.63 0.25
20191212181442 47 351 0.0 2.0 0.11 0.63 0.25
20191212180941 47 9 0.0 11.0 0.13 0.63 0.25
20191212180441 47 338 0.0 11.0 0.13 0.63 0.25
20191212175942 47 343 2.0 11.0 0.18 0.63 0.25
20191212174941 48 288 4.0 17.0 0.21 0.45 0.24
20191212174441 48 315 5.0 17.0 0.21 0.45 0.24
20191212173942 48 310 6.0 17.0 0.22 0.45 0.24
20191212173442 48 305 5.0 19.0 0.22 0.45 0.24
20191212172941 49 294 9.0 19.0 0.21 0.45 0.24
20191212172441 50 189 6.0 19.0 0.21 0.45 0.24
20191212171942 51 197 5.0 18.0 0.12 0.45 0.23
20191212171442 51 207 8.0 18.0 0.12 0.45 0.17
20191212170941 51 219 7.0 18.0 0.12 0.45 0.14
20191212170441 50 200 7.0 10.0 0.12 0.45 0.13
20191212165942 50 219 6.0 17.0 0.06 0.45 0.12
20191212165441 50 194 5.0 17.0 0.06 0.45 0.09
20191212164942 50 100 4.0 17.0 0.03 0.43 0.05
20191212164442 50 226 10.0 22.0 0.03 0.43 0.04
20191212163941 50 214 6.0 22.0 0.02 0.43 0.03
20191212163441 50 200 9.0 22.0 0.02 0.43 0.02
20191212162941 50 239 2.0 12.0 0.02 0.43 0.02
20191212162442 51 148 6.0 11.0 0.02 0.43 0.02
20191212161942 51 191 3.0 11.0 0.02 0.43 0.02
20191212161441 51 162 4.0 11.0 0.02 0.43 0.02
20191212160942 51 211 0.0 8.0 0.00 0.43 0.02
20191212160441 51 152 0.0 8.0 0.00 0.43 0.02
20191212155941 51 117 1.0 8.0 0.00 0.43 0.00
20191212155441 50 121 2.0 6.0 0.00 0.43 0.00
20191212154941 50 156 3.0 7.0 0.00 0.46 0.00
20191212154441 50 147 3.0 7.0 0.00 0.46 0.00
20191212153941 50 179 1.0 7.0 0.00 0.46 0.00
20191212153441 50 184 2.0 7.0 0.00 0.46 0.00
20191212152941 50 191 0.0 7.0 0.00 0.46 0.00
20191212152442 50 176 3.0 12.0 0.00 0.46 0.00
20191212151941 50 180 1.0 12.0 0.00 0.46 0.00
20191212151441 50 203 4.0 12.0 0.00 0.46 0.00
20191212150941 50 180 5.0 10.0 0.00 0.46 0.00
20191212150441 50 186 2.0 10.0 0.00 0.46 0.00
20191212145941 50 200 2.0 9.0 0.00 0.46 0.00
20191212145441 50 203 3.0 9.0 0.00 0.46 0.00
20191212144941 51 231 2.0 12.0 0.00 0.46 0.00
20191212144441 51 211 3.0 12.0 0.00 0.46 0.00
20191212143941 51 182 1.0 12.0 0.00 0.46 0.00
20191212143441 51 158 5.0 11.0 0.00 0.46 0.00
20191212142941 51 190 3.0 11.0 0.00 0.46 0.00
20191212142441 51 176 4.0 8.0 0.00 0.46 0.00
20191212141941 50 232 4.0 8.0 0.00 0.46 0.00
20191212141441 50 232 1.0 8.0 0.00 0.46 0.00
20191212140941 50 151 2.0 8.0 0.00 0.46 0.00
20191212140441 50 204 4.0 9.0 0.00 0.46 0.00
20191212135941 50 210 1.0 9.0 0.00 0.46 0.00
20191212135441 50 186 2.0 9.0 0.00 0.46 0.00
20191212134441 50 233 0.0 9.0 0.00 0.46 0.00
20191212133941 50 205 3.0 9.0 0.00 0.46 0.00
20191212132941 50 232 4.0 9.0 0.00 0.46 0.00
20191212132441 50 168 3.0 9.0 0.00 0.46 0.00
20191212131941 50 177 1.0 11.0 0.00 0.46 0.00
20191212131441 50 221 3.0 11.0 0.00 0.46 0.00
20191212130941 50 233 3.0 11.0 0.00 0.46 0.00
20191212130440 50 187 4.0 9.0 0.00 0.46 0.00
20191212125940 50 217 2.0 10.0 0.00 0.46 0.00
20191212125441 51 189 5.0 10.0 0.00 0.46 0.00
20191212124940 51 173 2.0 10.0 0.00 0.48 0.00
20191212124441 50 147 5.0 10.0 0.00 0.48 0.00
20191212123941 50 191 4.0 10.0 0.00 0.48 0.00
20191212123441 50 233 3.0 10.0 0.00 0.48 0.00
20191212122941 50 173 5.0 10.0 0.00 0.48 0.00
20191212122441 50 141 3.0 10.0 0.00 0.48 0.00
20191212121441 50 218 0.0 10.0 0.00 0.48 0.00
20191212120441 50 224 1.0 10.0 0.00 0.48 0.00
20191212115941 50 172 4.0 9.0 0.00 0.48 0.00
20191212115441 50 200 1.0 9.0 0.00 0.48 0.00
20191212114940 50 229 4.0 9.0 0.00 0.49 0.00
20191212114441 50 214 4.0 9.0 0.00 0.49 0.00
20191212113940 50 226 0.0 9.0 0.00 0.49 0.00
20191212113441 50 229 2.0 9.0 0.00 0.49 0.00
20191212112940 50 222 2.0 10.0 0.00 0.49 0.00
20191212112440 50 190 5.0 10.0 0.00 0.49 0.00
20191212111940 50 224 4.0 10.0 0.00 0.49 0.00
20191212111440 50 233 2.0 9.0 0.00 0.49 0.00
20191212110940 50 239 1.0 7.0 0.00 0.49 0.00
20191212110440 50 246 2.0 5.0 0.00 0.49 0.00
20191212105940 50 228 2.0 5.0 0.00 0.49 0.00
20191212105441 50 201 1.0 5.0 0.00 0.49 0.00
20191212104940 50 84 1.0 2.0 0.00 0.50 0.00
20191212104440 50 278 0.0 6.0 0.00 0.50 0.00
20191212103941 50 214 0.0 6.0 0.00 0.50 0.00
20191212103440 50 207 1.0 6.0 0.00 0.50 0.00
20191212102940 50 231 0.0 5.0 0.00 0.50 0.00
20191212102441 50 222 2.0 5.0 0.00 0.50 0.00
20191212101940 50 224 1.0 5.0 0.00 0.50 0.00
20191212101440 50 212 0.0 5.0 0.00 0.50 0.00
20191212100940 50 11 1.0 5.0 0.00 0.50 0.00
20191212100440 50 231 0.0 5.0 0.00 0.50 0.00
20191212095940 50 235 1.0 5.0 0.00 0.50 0.00
20191212095440 50 224 1.0 5.0 0.00 0.50 0.00
20191212094940 50 197 1.0 4.0 0.00 0.50 0.00
20191212094440 50 217 0.0 4.0 0.00 0.50 0.00
20191212093940 50 214 0.0 4.0 0.00 0.50 0.00
20191212093440 50 193 1.0 7.0 0.00 0.50 0.00
20191212092941 50 207 1.0 7.0 0.00 0.50 0.00
20191212092440 50 247 0.0 7.0 0.00 0.50 0.00
20191212091940 50 194 1.0 6.0 0.00 0.50 0.00
20191212091457 50 233 0.0 8.0 0.00 0.50 0.00
20191212091440 50 236 2.0 8.0 0.00 0.50 0.00
20191212090940 50 233 0.0 8.0 0.00 0.50 0.00
20191212090440 50 226 1.0 8.0 0.00 0.50 0.00
20191212085941 50 198 4.0 8.0 0.00 0.50 0.00
20191212085440 50 263 1.0 8.0 0.00 0.50 0.00
20191212084940 50 238 1.0 8.0 0.00 0.50 0.00
20191212084440 50 204 1.0 7.0 0.00 0.50 0.00
20191212083940 50 197 1.0 6.0 0.00 0.50 0.00
20191212083440 50 242 2.0 7.0 0.00 0.50 0.00
20191212082940 50 229 3.0 7.0 0.00 0.50 0.00
20191212082440 50 239 1.0 7.0 0.00 0.50 0.00
20191212081940 50 205 1.0 6.0 0.00 0.50 0.00
20191212081440 50 212 1.0 7.0 0.00 0.50 0.00
20191212080940 50 257 2.0 7.0 0.00 0.50 0.00
20191212080440 50 238 0.0 7.0 0.00 0.50 0.00
20191212075945 50 231 2.0 5.0 0.00 0.50 0.00
20191212075440 50 289 1.0 5.0 0.00 0.50 0.00
20191212074940 50 235 0.0 5.0 0.00 0.50 0.00
20191212074440 50 5 0.0 5.0 0.00 0.50 0.00
20191212073940 50 217 1.0 5.0 0.00 0.50 0.00
20191212073440 50 243 0.0 5.0 0.00 0.50 0.00
20191212072940 50 242 0.0 5.0 0.00 0.50 0.00
20191212072440 50 271 0.0 5.0 0.00 0.50 0.00
20191212071940 50 267 1.0 4.0 0.00 0.50 0.00
20191212071440 50 253 1.0 8.0 0.00 0.50 0.00
20191212070440 50 263 1.0 8.0 0.00 0.50 0.00
20191212065940 51 285 2.0 5.0 0.00 0.50 0.00
20191212065440 51 324 1.0 4.0 0.00 0.50 0.00
20191212064440 51 250 0.0 5.0 0.00 0.50 0.50
20191212063940 51 275 1.0 5.0 0.00 0.50 0.50
20191212062940 51 8 0.0 7.0 0.01 0.50 0.50
20191212062439 51 275 1.0 7.0 0.01 0.50 0.50
20191212061940 51 215 1.0 7.0 0.01 0.50 0.50
20191212061439 51 232 0.0 7.0 0.01 0.50 0.50